DW8587 Weather Reports


time (UTC)temp
C
wind
direction
speed
KPH
gust
KPH
rain 1hr
cm
rain 24hr
cm
rain mn
cm
humidity
%
barometer
mb
20260504223101 15 232 1.6 4.8 0.00 0.00 0.00 74 1014.9
20260504221559 15 232 0.0 0.0 0.00 0.00 0.00 73 1014.9
20260504220115 15 232 0.0 3.2 0.00 0.00 0.00 72 1015.1
20260504214558 15 232 0.0 3.2 0.00 0.00 0.00 72 1015.2
20260504213101 15 232 0.0 0.0 0.00 0.00 0.00 71 1015.3
20260504211557 15 232 0.0 1.6 0.00 0.00 0.00 69 1015.4
20260504210156 16 232 0.0 1.6 0.00 0.00 0.00 69 1015.5
20260504204555 16 232 0.0 3.2 0.00 0.00 0.00 68 1015.6
20260504203054 16 232 0.0 3.2 0.00 0.00 0.00 68 1015.6
20260504201553 16 232 0.0 3.2 0.00 0.00 0.00 67 1015.5
20260504200056 16 232 0.0 3.2 0.00 0.00 0.00 66 1015.5
20260504194552 16 232 1.6 3.2 0.00 0.00 0.00 65 1015.3
20260504193051 17 232 0.0 0.0 0.00 0.00 0.00 64 1015.1
20260504191556 17 232 0.0 3.2 0.00 0.00 0.00 62 1015.0
20260504184609 18 232 0.0 3.2 0.00 0.00 0.00 57 1014.8
20260504183053 18 232 0.0 3.2 0.00 0.00 0.00 55 1014.7
20260504181549 19 232 0.0 3.2 0.00 0.00 0.00 55 1014.7
20260504180047 19 232 0.0 3.2 0.00 0.00 0.00 53 1014.6
20260504174546 20 232 0.0 1.6 0.00 0.00 0.00 52 1014.7
20260504173049 20 232 1.6 4.8 0.00 0.00 0.00 49 1014.7
20260504171545 20 241 1.6 6.4 0.00 0.00 0.00 47 1014.7
20260504090104 18 248 4.8 12.9 0.00 0.00 0.00 47 1017.4
20260504081603 17 226 4.8 12.9 0.00 0.00 0.00 47 1017.3
20260504044530 11 45 1.6 4.8 0.00 0.00 0.00 75 1016.0
20260504043023 11 46 3.2 8.0 0.00 0.00 0.00 75 1015.9
20260504041519 11 47 4.8 8.0 0.00 0.00 0.00 75 1015.9
20260504040018 11 41 1.6 4.8 0.00 0.00 0.00 75 1015.9
20260504034516 11 41 1.6 3.2 0.00 0.00 0.00 76 1016.0
20260504033015 11 41 1.6 6.4 0.00 0.00 0.00 75 1015.9
20260504031516 11 53 1.6 6.4 0.00 0.00 0.00 76 1015.8
20260504030030 11 18 1.6 4.8 0.00 0.00 0.00 76 1016.0
20260504024510 11 42 4.8 9.7 0.00 0.00 0.00 76 1016.0
20260504023008 11 28 3.2 4.8 0.00 0.00 0.00 76 1016.1
20260504021504 12 26 1.6 4.8 0.00 0.00 0.00 76 1016.1
20260504020002 12 27 1.6 4.8 0.00 0.00 0.00 75 1016.0
20260504014600 13 44 3.2 6.4 0.00 0.00 0.00 74 1016.0
20260504013110 13 44 0.0 3.2 0.00 0.00 0.00 74 1016.1
20260504011557 13 23 3.2 4.8 0.00 0.00 0.00 74 1015.9
20260504010112 13 48 3.2 6.4 0.00 0.00 0.00 74 1015.9
20260504004621 13 48 3.2 6.4 0.00 0.00 0.00 75 1016.0
20260504003054 13 48 1.6 4.8 0.00 0.00 0.00 74 1016.3
20260504001558 13 48 4.8 8.0 0.00 0.00 0.00 74 1016.4
20260504000047 13 329 1.6 4.8 0.00 0.00 0.00 74 1016.6
20260503234548 13 42 1.6 6.4 0.00 0.00 0.00 74 1016.7
20260503233044 13 41 3.2 4.8 0.00 0.00 0.00 73 1016.8
20260503231543 13 40 1.6 4.8 0.00 0.00 0.00 73 1016.8
20260503230041 14 44 1.6 4.8 0.00 0.00 0.00 72 1016.9
20260503224541 14 44 1.6 3.2 0.00 0.00 0.00 71 1016.9